Weather observations for the past three days for
South Naknek Nr 2 Airport
Imperial (Metric)
Date Time (akdt) Wind (mph) Vis. (mi.) Weather Sky Cond. Temperature (ºF) Relative Humidity Wind Chill (°F) Heat Index (°F) Pressure Precipitation (in)
Air Dwpt 6 hour altimeter (in) sea level (mb) 1 hr 3 hr 6 hr
Max. Min.
22 20:56 SW 8 10.00 Fair CLR 70 55.9 61% 30.01 1020.4
22 19:56 SW 13 10.00 Fair CLR 72 55.9 57% 30.01 1020.4
22 18:56 W 12 G 20 10.00 Fair CLR 71.1 55 57% 30.01 1020.3
22 17:56 W 15 10.00 Fair CLR 72 52 50% 30.02 1020.6
22 16:56 W 13 10.00 Fair CLR 71.1 55.9 59% 30.02 1020.8
22 15:56 W 9 10.00 Fair CLR 73.9 61 77 62.1 64% 30.03 1020.9
22 14:56 W 5 10.00 Fair CLR 73 59 62% 30.03 1021.0
22 13:56 W 7 10.00 Fair CLR 69.1 59 70% 30.03 1021.1
22 12:56 NW 6 10.00 Fair CLR 70 59 68% 30.03 1021.0
22 11:56 Calm 10.00 Fair CLR 70 55 59% 30.04 1021.2
22 10:56 S 6 10.00 Fair CLR 66 55.9 70% 30.05 1021.5
22 09:56 SE 6 10.00 Fair CLR 62.1 54 62.1 52 75% 30.04 1021.4 0.41 0.66
22 08:56 SE 6 10.00 Fair CLR 57.9 53.1 84% 30.04 1021.4 0.25
22 07:56 SE 3 10.00 Fair CLR 54 52 93% 30.04 1021.4
22 06:56 SW 6 10.00 Fair CLR 52 50 93% 30.04 1021.5
22 05:56 S 6 10.00 Fair CLR 53.1 51.1 93% 30.05 1021.6
22 04:56 SW 8 10.00 Fair CLR 52 50 93% 30.05 1021.6
22 03:56 S 9 10.00 Fair CLR 53.1 51.1 66 53.1 93% 30.06 1021.9
22 02:56 SW 8 10.00 Fair CLR 55 51.1 87% 30.06 1022.1
22 01:56 SW 7 10.00 Fair CLR 57 52 83% 30.06 1022.0
22 00:56 W 7 10.00 Fair CLR 59 54 83% 30.06 1022.0
21 23:56 NW 8 10.00 Fair CLR 64 55 73% 30.07 1022.3
21 22:56 W 8 10.00 Fair CLR 64.9 55.9 73% 30.07 1022.4
21 21:56 W 10 10.00 Fair CLR 64.9 55 73 64.9 70% 30.07 1022.5
21 20:56 W 10 10.00 Fair CLR 69.1 55 61% 30.07 1022.5
21 19:56 W 12 10.00 Fair CLR 69.1 55 61% 30.08 1022.8
21 18:56 W 13 10.00 Fair CLR 71.1 55 57% 30.09 1023.2
21 16:56 NW 8 10.00 Fair CLR 71.1 55 57% 30.12 1024.1
21 15:56 NW 9 10.00 Fair CLR 70 54 71.1 61 57% 30.13 1024.6
21 14:56 NW 9 10.00 Fair CLR 70 55.9 61% 30.15 1025.0
21 13:56 NW 9 10.00 Fair CLR 68 55 63% 30.16 1025.4
21 12:56 NW 6 10.00 Fair CLR 68 57 68% 30.17 1025.6
21 11:56 Calm 10.00 Fair CLR 68 53.1 59% 30.17 1025.8
21 10:56 SW 5 10.00 Fair CLR 64 53.1 68% 30.19 1026.2
21 09:56 S 6 10.00 Fair CLR 61 53.1 61 46 75% 30.19 1026.4
21 08:56 S 7 10.00 Fair CLR 57 52 83% 30.19 1026.6
21 07:56 S 8 10.00 Fair CLR 54 51.1 90% 30.19 1026.5
21 06:56 SE 6 10.00 Fair CLR 50 48 93% 48 30.19 1026.5
21 05:56 SE 8 10.00 Fair CLR 48 46.9 96% 45 30.18 1026.3
21 04:56 Calm 10.00 Fair CLR 51.1 48.9 92% 30.19 1026.4
21 03:56 S 10 10.00 Fair CLR 53.1 50 68 53.1 89% 30.18 1026.3
21 02:56 S 9 10.00 Fair CLR 55 50 83% 30.19 1026.3
21 01:56 S 8 10.00 Fair CLR 55.9 52 87% 30.19 1026.3
21 00:56 N 5 10.00 Fair CLR 59 52 78% 30.18 1026.2
20 23:56 W 3 10.00 Fair CLR 62.1 54 75% 30.17 1025.7
20 22:56 W 6 10.00 Fair CLR 64.9 55 70% 30.17 1025.9
20 21:56 SW 3 10.00 Fair CLR 68 55 73.9 68 63% 30.17 1025.7
20 20:56 W 7 10.00 Fair CLR 70 54 57% 30.16 1025.5
20 19:56 W 9 10.00 Fair CLR 71.1 52 51% 30.16 1025.6
20 18:56 W 10 10.00 Fair CLR 73 54 51% 30.16 1025.6
20 17:56 W 8 10.00 Fair CLR 73.9 52 46% 30.17 1025.8
20 16:56 W 8 10.00 Fair CLR 73 52 48% 30.17 1025.9
20 15:56 NW 7 10.00 Fair CLR 73 54 73 57.9 51% 30.19 1026.3
20 14:56 W 7 10.00 Fair CLR 71.1 54 55% 30.2 1026.7
20 13:56 NW 6 10.00 Fair CLR 68 54 61% 30.21 1027.0
20 12:56 NW 5 10.00 Fair CLR 64 53.1 68% 30.22 1027.3
20 11:56 NW 8 10.00 Fair CLR 63 52 68% 30.22 1027.6
20 10:56 W 5 10.00 Fair CLR 59 50 72% 30.23 1028.0
20 09:56 NW 3 10.00 Fair CLR 57.9 48.9 57.9 48 72% 30.24 1028.0 0.01
20 08:56 N 3 10.00 Fair CLR 55.9 46.9 72% 30.24 1028.2 0.01
20 07:56 Calm 10.00 Fair CLR 51.1 48 89% 30.24 1028.0
20 06:56 S 5 10.00 Fair CLR 50 46.9 89% 49 30.23 1027.9
20 05:56 Calm 10.00 Fair CLR 52 46.9 83% 30.23 1028.0
20 04:56 SE 3 10.00 Fair CLR 51.1 46.9 86% 30.24 1028.0
20 03:56 NW 7 10.00 Fair CLR 54 48.9 62.1 51.1 83% 30.23 1028.0
20 02:56 W 7 10.00 Fair CLR 54 48.9 83% 30.24 1028.1
20 01:56 W 6 10.00 Fair CLR 53.1 48 83% 30.24 1028.1
20 00:56 W 9 10.00 Fair CLR 53.1 48.9 86% 30.23 1028.0
19 23:56 W 9 10.00 Fair CLR 55.9 50 81% 30.23 1027.9
19 22:56 W 9 10.00 Fair CLR 57.9 51.1 78% 30.22 1027.6
Date Time (akdt) Wind (mph) Vis. (mi.) Weather Sky Cond. Air Dwpt Max. Min. Relative Humidity Wind Chill (°F) Heat Index (°F) altimeter (in) sea level (mb) 1 hr 3 hr 6 hr
6 hour
Temperature (ºF) Pressure Precipitation (in)